CQ0XPA-11 Weather Reports


time (UTC)temp
C
wind
direction
speed
KPH
gust
KPH
rain 1hr
cm
rain 24hr
cm
rain mn
cm
humidity
%
barometer
mb
20200930030322 14 225 4.8 4.8 0.00 0.00 0.00 96 1010.8
20200930030128 14 180 1.6 3.2 0.00 0.00 0.00 96 1010.8
20200930025918 14 0 1.6 3.2 0.00 0.00 0.00 96 1010.8
20200930025717 14 157 0.0 3.2 0.00 0.00 0.00 96 1010.9
20200930025514 14 270 0.0 3.2 0.00 0.00 0.00 96 1010.9
20200930025314 14 270 0.0 3.2 0.00 0.00 0.00 95 1010.9
20200930025117 14 180 3.2 4.8 0.00 0.00 0.00 95 1010.9
20200930024909 14 180 1.6 4.8 0.00 0.00 0.00 95 1010.8
20200930024706 14 270 1.6 4.8 0.00 0.00 0.00 95 1010.8
20200930024512 14 270 1.6 4.8 0.00 0.00 0.00 94 1010.8
20200930024302 14 157 1.6 4.8 0.00 0.00 0.00 93 1010.9
20200930024103 14 180 1.6 4.8 0.00 0.00 0.00 94 1010.9
20200930022852 15 270 1.6 4.8 0.00 0.00 0.00 92 1010.8
20200930022647 15 270 0.0 4.8 0.00 0.00 0.00 92 1010.9
20200930022443 15 135 3.2 4.8 0.00 0.00 0.00 92 1011.0
20200930021837 15 180 3.2 3.2 0.00 0.00 0.00 91 1011.0
20200930021637 15 157 1.6 3.2 0.00 0.00 0.00 91 1011.0
20200930021441 15 0 1.6 3.2 0.00 0.00 0.00 91 1011.1
20200930021231 15 270 1.6 3.2 0.00 0.00 0.00 90 1011.0
20200930021028 15 180 1.6 4.8 0.00 0.00 0.00 90 1011.0
20200930020631 15 180 3.2 4.8 0.00 0.00 0.00 89 1011.0
20200930020424 15 180 1.6 4.8 0.00 0.00 0.00 88 1011.0
20200930020032 15 180 1.6 3.2 0.00 0.00 0.00 88 1011.1
20200930015816 15 180 1.6 4.8 0.00 0.00 0.00 88 1011.2
20200930015615 15 157 4.8 4.8 0.00 0.00 0.00 88 1011.2
20200930015414 15 270 0.0 4.8 0.00 0.00 0.00 87 1011.1
20200930015210 15 45 1.6 8.0 0.00 0.00 0.00 87 1011.2
20200930015012 15 270 1.6 8.0 0.00 0.00 0.00 87 1011.1
20200930014806 15 225 0.0 6.4 0.00 0.00 0.00 87 1011.1
20200930014608 15 157 3.2 6.4 0.00 0.00 0.00 85 1011.2
20200930014404 15 180 1.6 4.8 0.00 0.00 0.00 86 1011.1
20200930014206 15 157 1.6 4.8 0.00 0.00 0.00 85 1011.2
20200930013958 15 0 3.2 6.4 0.00 0.00 0.00 85 1011.2
20200930013757 15 157 0.0 6.4 0.00 0.00 0.00 85 1011.3
20200930013554 15 225 3.2 4.8 0.00 0.00 0.00 85 1011.2
20200930013351 15 135 3.2 4.8 0.00 0.00 0.00 85 1011.2
20200930013149 15 90 0.0 4.8 0.00 0.00 0.00 85 1011.3
20200930012949 15 135 1.6 3.2 0.00 0.00 0.00 84 1011.1
20200930012745 15 157 1.6 3.2 0.00 0.00 0.00 85 1011.2
20200930012544 15 135 0.0 4.8 0.00 0.00 0.00 84 1011.2
20200930012343 15 270 1.6 4.8 0.00 0.00 0.00 84 1011.2
20200930012139 15 180 1.6 4.8 0.00 0.00 0.00 83 1011.1
20200930011937 15 135 4.8 4.8 0.00 0.00 0.00 83 1011.1
20200930011734 15 180 0.0 4.8 0.00 0.00 0.00 83 1011.0
20200930011533 15 225 1.6 4.8 0.00 0.00 0.00 83 1011.1
20200930011331 15 101 1.6 4.8 0.00 0.00 0.00 82 1011.1
20200930011129 15 180 1.6 4.8 0.00 0.00 0.00 82 1011.1
20200930010926 15 225 0.0 3.2 0.00 0.00 0.00 82 1011.1
20200930010725 16 0 1.6 3.2 0.00 0.00 0.00 81 1011.1
20200930010530 16 180 1.6 3.2 0.00 0.00 0.00 81 1011.1
20200930010323 16 180 3.2 4.8 0.00 0.00 0.00 81 1011.1
20200930010120 16 270 0.0 4.8 0.00 0.00 0.00 81 1011.1
20200930005916 16 270 4.8 4.8 0.00 0.00 0.00 81 1011.2
20200930005714 16 112 1.6 4.8 0.00 0.00 0.00 80 1011.1
20200930005515 16 270 1.6 4.8 0.00 0.00 0.00 81 1011.0
20200930005316 16 90 0.0 4.8 0.00 0.00 0.00 80 1011.1
20200930005108 16 270 0.0 4.8 0.00 0.00 0.00 80 1011.0
20200930004905 16 270 1.6 4.8 0.00 0.00 0.00 80 1011.1
20200930004704 16 270 0.0 4.8 0.00 0.00 0.00 80 1011.1
20200930004504 16 180 1.6 4.8 0.00 0.00 0.00 80 1011.1
20200930004302 16 225 1.6 6.4 0.00 0.00 0.00 80 1011.0
20200930004058 16 180 1.6 6.4 0.00 0.00 0.00 80 1011.1
20200930003856 16 157 3.2 3.2 0.00 0.00 0.00 79 1011.1
20200930003655 16 270 0.0 3.2 0.00 0.00 0.00 80 1011.1
20200930003454 16 180 0.0 3.2 0.00 0.00 0.00 80 1011.0
20200930003249 16 270 1.6 3.2 0.00 0.00 0.00 80 1011.1
20200930003047 16 180 1.6 4.8 0.00 0.00 0.00 80 1011.1
20200930002845 16 180 0.0 4.8 0.00 0.00 0.00 80 1011.1
20200930002643 16 180 1.6 3.2 0.00 0.00 0.00 80 1011.1
20200930002441 16 225 0.0 4.8 0.00 0.00 0.00 80 1011.1
20200930002241 16 225 0.0 4.8 0.00 0.00 0.00 80 1011.1
20200930002044 16 225 1.6 4.8 0.00 0.00 0.00 80 1011.1
20200930001837 16 225 4.8 6.4 0.00 0.00 0.00 81 1011.1
20200930001632 16 270 1.6 6.4 0.00 0.00 0.00 80 1011.2
20200930001431 16 45 1.6 6.4 0.00 0.00 0.00 80 1011.2
20200930001228 16 180 1.6 6.4 0.00 0.00 0.00 81 1011.1
20200930001028 16 180 1.6 4.8 0.00 0.00 0.00 80 1011.3
20200930000623 16 180 4.8 9.7 0.00 0.00 0.00 81 1011.2
20200930000422 16 270 0.0 4.8 0.00 0.00 0.00 81 1011.1
20200930000219 16 270 0.0 6.4 0.00 0.00 0.00 81 1011.2
20200930000024 16 270 1.6 6.4 0.00 0.00 0.00 81 1011.1
20200929235814 16 225 1.6 4.8 0.00 0.00 0.00 82 1011.0
20200929235618 16 270 3.2 3.2 0.00 0.00 0.00 81 1011.0
20200929235204 16 270 1.6 8.0 0.00 0.00 0.00 82 1011.1
20200929235006 16 90 1.6 6.4 0.00 0.00 0.00 81 1011.1
20200929234758 16 180 3.2 4.8 0.00 0.00 0.00 81 1011.1
20200929234557 16 270 0.0 8.0 0.00 0.00 0.00 82 1011.0
20200929234354 16 180 3.2 8.0 0.00 0.00 0.00 81 1011.1
20200929234153 16 270 8.0 8.0 0.00 0.00 0.00 82 1010.9
20200929233952 16 270 0.0 4.8 0.00 0.00 0.00 81 1010.9
20200929233749 16 180 3.2 4.8 0.00 0.00 0.00 82 1011.0
20200929233346 16 180 1.6 9.7 0.00 0.00 0.00 82 1011.0
20200929233147 16 180 3.2 4.8 0.00 0.00 0.00 81 1011.1
20200929232940 16 270 0.0 4.8 0.00 0.00 0.00 82 1011.1
20200929232742 16 270 1.6 4.8 0.00 0.00 0.00 82 1011.0
20200929232538 16 123 1.6 4.8 0.00 0.00 0.00 82 1011.1
20200929232345 16 146 1.6 3.2 0.00 0.00 0.00 82 1011.1
20200929232134 16 270 0.0 4.8 0.00 0.00 0.00 81 1011.1
20200929231929 16 225 1.6 4.8 0.00 0.00 0.00 81 1011.1
20200929231728 16 270 3.2 3.2 0.00 0.00 0.00 81 1011.1
20200929231531 16 90 3.2 6.4 0.00 0.00 0.00 81 1011.1
20200929231324 16 180 3.2 6.4 0.00 0.00 0.00 81 1011.0
20200929231123 16 270 1.6 9.7 0.00 0.00 0.00 81 1011.2
20200929230920 16 180 3.2 9.7 0.00 0.00 0.00 81 1011.2
20200929230519 17 180 8.0 8.0 0.00 0.00 0.00 81 1011.2
20200929230313 17 225 3.2 6.4 0.00 0.00 0.00 81 1011.3
20200929230115 17 270 1.6 6.4 0.00 0.00 0.00 81 1011.3
20200929225909 17 270 1.6 4.8 0.00 0.00 0.00 81 1011.2
20200929225708 17 270 0.0 4.8 0.00 0.00 0.00 81 1011.2
20200929225508 17 270 0.0 3.2 0.00 0.00 0.00 81 1011.2
20200929225304 17 180 0.0 3.2 0.00 0.00 0.00 81 1011.3
20200929225100 17 135 3.2 3.2 0.00 0.00 0.00 81 1011.3
20200929224900 17 180 0.0 4.8 0.00 0.00 0.00 81 1011.3
20200929224657 17 270 0.0 4.8 0.00 0.00 0.00 81 1011.4
20200929224455 17 180 1.6 3.2 0.00 0.00 0.00 80 1011.3
20200929223848 17 180 3.2 4.8 0.00 0.00 0.00 81 1011.4
20200929222638 17 157 3.2 6.4 0.00 0.00 0.00 80 1011.2
20200929222434 17 180 1.6 4.8 0.00 0.00 0.00 80 1011.1
20200929222231 17 270 0.0 4.8 0.00 0.00 0.00 81 1011.3
20200929222030 17 270 1.6 6.4 0.00 0.00 0.00 80 1011.1
20200929221833 17 270 1.6 6.4 0.00 0.00 0.00 80 1011.1
20200929221628 17 0 6.4 6.4 0.00 0.00 0.00 80 1011.1
20200929221423 17 180 0.0 4.8 0.00 0.00 0.00 80 1011.2
20200929221223 17 180 1.6 9.7 0.00 0.00 0.00 80 1011.3
20200929221019 17 157 1.6 9.7 0.00 0.00 0.00 79 1011.2
20200929220821 17 90 9.7 9.7 0.00 0.00 0.00 79 1011.1
20200929220616 17 180 3.2 3.2 0.00 0.00 0.00 78 1011.0
20200929220414 17 45 0.0 3.2 0.00 0.00 0.00 80 1011.2
20200929220212 17 270 0.0 1.6 0.00 0.00 0.00 79 1011.2
20200929220021 17 270 1.6 3.2 0.00 0.00 0.00 78 1011.2
20200929215807 17 180 1.6 4.8 0.00 0.00 0.00 79 1011.2
20200929215611 17 180 1.6 4.8 0.00 0.00 0.00 79 1011.1
20200929215402 17 180 4.8 9.7 0.00 0.00 0.00 79 1011.1
20200929215203 17 270 4.8 9.7 0.00 0.00 0.00 78 1011.2
20200929214958 17 180 4.8 6.4 0.00 0.00 0.00 78 1011.2
20200929214803 17 225 1.6 6.4 0.00 0.00 0.00 78 1011.1
20200929214554 17 270 1.6 4.8 0.00 0.00 0.00 78 1011.1
20200929214353 18 90 1.6 4.8 0.00 0.00 0.00 77 1011.1
20200929214150 18 270 0.0 4.8 0.00 0.00 0.00 78 1011.2
20200929213950 18 135 1.6 4.8 0.00 0.00 0.00 78 1011.2
20200929213747 18 270 1.6 6.4 0.00 0.00 0.00 77 1011.1
20200929213546 18 270 3.2 6.4 0.00 0.00 0.00 77 1011.2
20200929213342 18 180 6.4 6.4 0.00 0.00 0.00 77 1011.0
20200929213142 18 270 1.6 4.8 0.00 0.00 0.00 77 1011.0
20200929212736 18 225 3.2 4.8 0.00 0.00 0.00 76 1011.0
20200929212538 18 180 0.0 6.4 0.00 0.00 0.00 76 1011.0
20200929212332 18 180 1.6 6.4 0.00 0.00 0.00 76 1011.0
20200929212131 18 90 4.8 4.8 0.00 0.00 0.00 76 1011.0
20200929211928 18 90 1.6 4.8 0.00 0.00 0.00 76 1011.0
20200929211731 18 180 3.2 4.8 0.00 0.00 0.00 76 1011.0
20200929211526 18 180 0.0 4.8 0.00 0.00 0.00 75 1011.0
20200929211324 18 180 1.6 4.8 0.00 0.00 0.00 75 1011.0
20200929211120 18 180 0.0 6.4 0.00 0.00 0.00 76 1011.0
20200929210917 18 0 3.2 6.4 0.00 0.00 0.00 75 1011.0
20200929210716 18 180 4.8 4.8 0.00 0.00 0.00 74 1010.9
20200929210513 18 270 1.6 4.8 0.00 0.00 0.00 74 1010.9
20200929210311 18 180 1.6 4.8 0.00 0.00 0.00 74 1010.9
20200929210112 18 90 3.2 4.8 0.00 0.00 0.00 74 1010.9
20200929205908 19 180 1.6 4.8 0.00 0.00 0.00 74 1011.0
20200929205705 19 180 0.0 3.2 0.00 0.00 0.00 74 1010.9
20200929205509 19 180 1.6 4.8 0.00 0.00 0.00 74 1010.8
20200929205305 19 270 0.0 4.8 0.00 0.00 0.00 73 1011.0
20200929205100 19 157 1.6 6.4 0.00 0.00 0.00 73 1010.9
20200929204859 19 270 0.0 6.4 0.00 0.00 0.00 73 1010.8
20200929204659 19 180 1.6 6.4 0.00 0.00 0.00 73 1010.9
20200929204455 19 180 3.2 6.4 0.00 0.00 0.00 73 1010.8
20200929204251 19 270 0.0 4.8 0.00 0.00 0.00 73 1010.8
20200929204048 19 180 0.0 3.2 0.00 0.00 0.00 73 1010.7
20200929203846 19 180 3.2 6.4 0.00 0.00 0.00 72 1010.7
20200929203644 19 270 3.2 6.4 0.00 0.00 0.00 72 1010.6
20200929203442 19 45 6.4 6.4 0.00 0.00 0.00 72 1010.7
20200929203240 19 270 1.6 4.8 0.00 0.00 0.00 71 1010.7
20200929203038 20 180 1.6 3.2 0.00 0.00 0.00 72 1010.6
20200929202836 20 90 0.0 3.2 0.00 0.00 0.00 72 1010.6
20200929202634 20 90 1.6 4.8 0.00 0.00 0.00 71 1010.6
20200929202431 20 180 3.2 4.8 0.00 0.00 0.00 71 1010.5
20200929202231 20 270 3.2 4.8 0.00 0.00 0.00 71 1010.6
20200929202029 20 270 3.2 6.4 0.00 0.00 0.00 72 1010.6
20200929201826 20 90 1.6 6.4 0.00 0.00 0.00 72 1010.5
20200929201624 20 225 6.4 6.4 0.00 0.00 0.00 70 1010.4
20200929201422 20 180 1.6 6.4 0.00 0.00 0.00 71 1010.5
20200929201019 20 270 0.0 6.4 0.00 0.00 0.00 71 1010.4
20200929200815 20 180 4.8 6.4 0.00 0.00 0.00 71 1010.5
20200929200613 20 180 0.0 3.2 0.00 0.00 0.00 71 1010.5
20200929200411 20 270 3.2 3.2 0.00 0.00 0.00 71 1010.4
20200929200212 20 225 1.6 4.8 0.00 0.00 0.00 71 1010.4
20200929200024 20 270 3.2 4.8 0.00 0.00 0.00 71 1010.4
20200929195807 20 180 3.2 9.7 0.00 0.00 0.00 71 1010.4
20200929195602 20 225 3.2 9.7 0.00 0.00 0.00 70 1010.4
20200929195401 20 270 1.6 6.4 0.00 0.00 0.00 70 1010.4
20200929195158 20 0 0.0 6.4 0.00 0.00 0.00 71 1010.3
20200929195011 21 180 1.6 4.8 0.00 0.00 0.00 71 1010.3
20200929194754 21 180 0.0 4.8 0.00 0.00 0.00 71 1010.2
20200929194554 21 225 3.2 4.8 0.00 0.00 0.00 70 1010.3
20200929194350 21 180 1.6 3.2 0.00 0.00 0.00 70 1010.2
20200929194149 21 180 0.0 3.2 0.00 0.00 0.00 70 1010.2
20200929193946 21 270 0.0 4.8 0.00 0.00 0.00 70 1010.2
20200929193744 21 180 0.0 4.8 0.00 0.00 0.00 70 1010.3
20200929193543 21 135 1.6 1.6 0.00 0.00 0.00 69 1010.2
20200929193341 21 270 0.0 3.2 0.00 0.00 0.00 68 1010.2
20200929193138 21 270 1.6 3.2 0.00 0.00 0.00 69 1010.1
20200929192936 21 270 3.2 3.2 0.00 0.00 0.00 69 1010.3
20200929192733 21 270 1.6 1.6 0.00 0.00 0.00 69 1010.2
20200929192532 21 270 0.0 1.6 0.00 0.00 0.00 68 1010.3
20200929192330 21 270 0.0 1.6 0.00 0.00 0.00 68 1010.1
20200929192130 21 270 1.6 1.6 0.00 0.00 0.00 68 1010.2
20200929191929 21 180 1.6 4.8 0.00 0.00 0.00 68 1010.1
20200929191724 21 225 0.0 4.8 0.00 0.00 0.00 68 1010.2
20200929191521 21 90 1.6 4.8 0.00 0.00 0.00 67 1010.1
20200929191320 21 90 1.6 4.8 0.00 0.00 0.00 67 1010.0
20200929191117 22 270 1.6 3.2 0.00 0.00 0.00 67 1010.1
20200929190915 22 90 0.0 3.2 0.00 0.00 0.00 68 1010.1
20200929190713 22 180 0.0 3.2 0.00 0.00 0.00 66 1010.1
20200929190511 22 270 1.6 4.8 0.00 0.00 0.00 66 1010.1
20200929190309 22 270 1.6 4.8 0.00 0.00 0.00 66 1010.1
20200929190113 22 270 1.6 11.3 0.00 0.00 0.00 66 1010.1
20200929185904 22 90 3.2 11.3 0.00 0.00 0.00 65 1010.0
20200929185703 22 90 3.2 8.0 0.00 0.00 0.00 64 1009.9
20200929185500 22 90 1.6 4.8 0.00 0.00 0.00 64 1010.0
20200929185259 22 90 1.6 4.8 0.00 0.00 0.00 64 1009.9
20200929184703 22 180 4.8 6.4 0.00 0.00 0.00 62 1009.9
20200929184250 22 270 1.6 4.8 0.00 0.00 0.00 61 1009.9
20200929184046 23 90 3.2 4.8 0.00 0.00 0.00 61 1009.9
20200929183848 23 90 3.2 4.8 0.00 0.00 0.00 61 1009.8
20200929183644 23 270 1.6 4.8 0.00 0.00 0.00 61 1009.8
20200929183440 23 90 1.6 3.2 0.00 0.00 0.00 60 1009.8
20200929183240 23 90 3.2 6.4 0.00 0.00 0.00 59 1009.8
20200929183037 23 270 1.6 6.4 0.00 0.00 0.00 59 1009.7
20200929182837 23 270 3.2 6.4 0.00 0.00 0.00 58 1009.7
20200929182631 23 270 3.2 8.0 0.00 0.00 0.00 58 1009.7
20200929182430 23 90 6.4 8.0 0.00 0.00 0.00 58 1009.6
20200929182229 24 90 4.8 8.0 0.00 0.00 0.00 58 1009.7
20200929182026 24 270 1.6 4.8 0.00 0.00 0.00 57 1009.6
20200929181823 24 90 3.2 4.8 0.00 0.00 0.00 57 1009.7
20200929181622 24 90 4.8 4.8 0.00 0.00 0.00 57 1009.6
20200929181419 24 270 4.8 4.8 0.00 0.00 0.00 56 1009.7
20200929181219 25 90 0.0 3.2 0.00 0.00 0.00 56 1009.7
20200929181019 25 270 3.2 4.8 0.00 0.00 0.00 56 1009.7
20200929180831 25 90 1.6 4.8 0.00 0.00 0.00 56 1009.5
20200929180410 25 90 3.2 4.8 0.00 0.00 0.00 56 1009.5
20200929180206 25 135 1.6 6.4 0.00 0.00 0.00 56 1009.5
20200929180017 25 270 1.6 6.4 0.00 0.00 0.00 56 1009.5
20200929175804 25 270 1.6 6.4 0.00 0.00 0.00 56 1009.5
20200929175602 25 270 1.6 6.4 0.00 0.00 0.00 56 1009.4
20200929175359 25 90 1.6 8.0 0.00 0.00 0.00 56 1009.4
20200929175157 25 270 1.6 8.0 0.00 0.00 0.00 56 1009.4
20200929174956 26 0 4.8 8.0 0.00 0.00 0.00 56 1009.4
20200929174801 26 45 4.8 6.4 0.00 0.00 0.00 56 1009.4
20200929174551 26 270 3.2 4.8 0.00 0.00 0.00 56 1009.4
20200929174348 26 90 1.6 4.8 0.00 0.00 0.00 56 1009.3
20200929174146 26 270 3.2 6.4 0.00 0.00 0.00 55 1009.3
20200929173946 26 270 0.0 8.0 0.00 0.00 0.00 56 1009.2
20200929173748 26 45 1.6 8.0 0.00 0.00 0.00 55 1009.2
20200929173541 26 90 4.8 6.4 0.00 0.00 0.00 55 1009.2
20200929173338 26 90 1.6 4.8 0.00 0.00 0.00 55 1009.2
20200929173139 26 90 0.0 4.8 0.00 0.00 0.00 55 1009.2
20200929172933 26 90 4.8 4.8 0.00 0.00 0.00 55 1009.2
20200929172530 26 90 1.6 4.8 0.00 0.00 0.00 54 1009.2
20200929172328 26 90 1.6 6.4 0.00 0.00 0.00 54 1009.2
20200929172126 26 90 0.0 6.4 0.00 0.00 0.00 54 1009.1
20200929171924 27 90 4.8 6.4 0.00 0.00 0.00 54 1009.2
20200929171721 27 90 6.4 6.4 0.00 0.00 0.00 53 1009.0
20200929171520 27 90 1.6 8.0 0.00 0.00 0.00 53 1009.1
20200929171319 27 270 1.6 8.0 0.00 0.00 0.00 53 1009.1
20200929171116 27 90 1.6 4.8 0.00 0.00 0.00 53 1009.1
20200929170915 27 90 1.6 8.0 0.00 0.00 0.00 53 1009.1
20200929170711 27 22 6.4 8.0 0.00 0.00 0.00 53 1009.1
20200929170509 28 90 3.2 6.4 0.00 0.00 0.00 52 1009.0
20200929170307 28 90 1.6 8.0 0.00 0.00 0.00 51 1009.0
20200929170104 28 90 6.4 8.0 0.00 0.00 0.00 51 1009.0
20200929165908 28 315 3.2 8.0 0.00 0.00 0.00 51 1009.0
20200929165700 29 90 6.4 8.0 0.00 0.00 0.00 51 1009.0
20200929165500 29 45 3.2 8.0 0.00 0.00 0.00 51 1008.9
20200929164850 30 157 4.8 9.7 0.00 0.00 0.00 51 1009.0
20200929164648 30 157 3.2 8.0 0.00 0.00 0.00 52 1008.9
20200929164445 30 0 4.8 8.0 0.00 0.00 0.00 51 1008.9
20200929164245 30 0 3.2 8.0 0.00 0.00 0.00 51 1008.9
20200929164041 30 157 4.8 6.4 0.00 0.00 0.00 51 1008.8
20200929163839 30 0 4.8 6.4 0.00 0.00 0.00 51 1008.8
20200929163636 30 0 3.2 11.3 0.00 0.00 0.00 50 1008.6
20200929163435 30 0 4.8 11.3 0.00 0.00 0.00 50 1008.7
20200929163235 30 157 6.4 8.0 0.00 0.00 0.00 50 1008.8
20200929163035 30 157 6.4 9.7 0.00 0.00 0.00 50 1008.8
20200929162831 30 123 4.8 9.7 0.00 0.00 0.00 50 1008.8
20200929162225 31 157 9.7 11.3 0.00 0.00 0.00 49 1008.6
20200929162021 31 157 8.0 9.7 0.00 0.00 0.00 49 1008.6
20200929161818 31 157 8.0 11.3 0.00 0.00 0.00 48 1008.6
20200929161616 31 270 4.8 11.3 0.00 0.00 0.00 48 1008.5
20200929161416 31 157 6.4 14.5 0.00 0.00 0.00 48 1008.7
20200929161212 31 157 6.4 14.5 0.00 0.00 0.00 47 1008.5
20200929161011 32 157 11.3 11.3 0.00 0.00 0.00 46 1008.5
20200929160808 32 157 4.8 12.9 0.00 0.00 0.00 46 1008.6
20200929160608 32 270 6.4 12.9 0.00 0.00 0.00 46 1008.4
20200929160404 32 270 6.4 11.3 0.00 0.00 0.00 44 1008.5
20200929160202 32 157 4.8 11.3 0.00 0.00 0.00 43 1008.5
20200929155959 32 157 8.0 11.3 0.00 0.00 0.00 43 1008.5
20200929155807 32 157 4.8 6.4 0.00 0.00 0.00 42 1008.5
20200929155556 32 270 4.8 6.4 0.00 0.00 0.00 39 1008.6
20200929155357 32 157 6.4 6.4 0.00 0.00 0.00 39 1008.5
20200929155154 32 157 3.2 6.4 0.00 0.00 0.00 39 1008.5
20200929154951 32 270 6.4 6.4 0.00 0.00 0.00 39 1008.5
20200929154748 32 270 3.2 6.4 0.00 0.00 0.00 39 1008.5
20200929154547 33 180 3.2 4.8 0.00 0.00 0.00 39 1008.5
20200929154343 33 270 4.8 4.8 0.00 0.00 0.00 39 1008.5
20200929154143 33 157 3.2 8.0 0.00 0.00 0.00 39 1008.5
20200929153939 33 270 4.8 8.0 0.00 0.00 0.00 39 1008.5
20200929153737 33 270 8.0 8.0 0.00 0.00 0.00 40 1008.6
20200929153536 33 270 6.4 6.4 0.00 0.00 0.00 40 1008.5
20200929153333 32 157 3.2 8.0 0.00 0.00 0.00 40 1008.5
20200929153132 32 157 4.8 8.0 0.00 0.00 0.00 40 1008.5
20200929152931 33 270 4.8 8.0 0.00 0.00 0.00 40 1008.4
20200929152726 33 270 6.4 8.0 0.00 0.00 0.00 40 1008.5
20200929152526 33 270 4.8 6.4 0.00 0.00 0.00 40 1008.5
20200929152325 33 270 1.6 6.4 0.00 0.00 0.00 41 1008.6
20200929152122 33 225 1.6 6.4 0.00 0.00 0.00 40 1008.5
20200929151921 33 157 4.8 8.0 0.00 0.00 0.00 40 1008.5
20200929151525 33 157 6.4 6.4 0.00 0.00 0.00 39 1008.5
20200929151315 33 270 3.2 11.3 0.00 0.00 0.00 40 1008.5
20200929151112 33 157 9.7 11.3 0.00 0.00 0.00 40 1008.6
20200929150910 33 270 1.6 8.0 0.00 0.00 0.00 40 1008.5
20200929150705 33 180 4.8 6.4 0.00 0.00 0.00 40 1008.6
20200929150514 33 270 6.4 6.4 0.00 0.00 0.00 40 1008.6
20200929150301 33 0 3.2 4.8 0.00 0.00 0.00 40 1008.6
20200929145049 33 270 1.6 9.7 0.00 0.00 0.00 40 1008.7
20200929144645 33 270 8.0 8.0 0.00 0.00 0.00 42 1008.6
20200929143035 32 157 4.8 8.0 0.00 0.00 0.00 42 1008.7
20200929142832 32 270 3.2 4.8 0.00 0.00 0.00 42 1008.7
20200929142624 32 157 1.6 9.7 0.00 0.00 0.00 42 1008.7
20200929142017 32 0 1.6 4.8 0.00 0.00 0.00 42 1008.7
20200929141607 32 157 1.6 11.3 0.00 0.00 0.00 42 1008.8
20200929141404 32 270 6.4 12.9 0.00 0.00 0.00 43 1008.9
20200929141203 32 157 4.8 12.9 0.00 0.00 0.00 42 1009.0
20200929140959 32 270 3.2 8.0 0.00 0.00 0.00 42 1008.9
20200929140803 32 157 3.2 8.0 0.00 0.00 0.00 43 1008.9
20200929140556 32 0 3.2 8.0 0.00 0.00 0.00 43 1008.9
20200929140356 32 270 0.0 8.0 0.00 0.00 0.00 43 1009.0
20200929140152 32 270 3.2 6.4 0.00 0.00 0.00 43 1009.0
20200929135951 32 123 3.2 6.4 0.00 0.00 0.00 42 1009.0
20200929135747 32 90 3.2 8.0 0.00 0.00 0.00 43 1009.0
20200929135547 32 123 3.2 8.0 0.00 0.00 0.00 42 1009.1
20200929135347 32 270 4.8 8.0 0.00 0.00 0.00 43 1009.0
20200929135143 32 123 8.0 9.7 0.00 0.00 0.00 42 1009.1
20200929134943 32 0 3.2 9.7 0.00 0.00 0.00 43 1009.1
20200929134739 32 180 3.2 9.7 0.00 0.00 0.00 43 1009.2
20200929134537 32 270 1.6 9.7 0.00 0.00 0.00 43 1009.2
20200929134333 32 90 6.4 11.3 0.00 0.00 0.00 42 1009.2
20200929134135 32 270 6.4 11.3 0.00 0.00 0.00 43 1009.2
20200929133929 32 123 3.2 6.4 0.00 0.00 0.00 44 1009.3
20200929133729 32 157 0.0 8.0 0.00 0.00 0.00 43 1009.2
20200929133532 32 0 3.2 8.0 0.00 0.00 0.00 43 1009.3
20200929133322 32 157 3.2 9.7 0.00 0.00 0.00 43 1009.3
20200929133124 32 0 4.8 9.7 0.00 0.00 0.00 43 1009.3
20200929132930 32 270 3.2 6.4 0.00 0.00 0.00 43 1009.4
20200929132517 32 0 3.2 9.7 0.00 0.00 0.00 43 1009.5
20200929132320 32 157 8.0 9.7 0.00 0.00 0.00 44 1009.4
20200929132113 32 270 0.0 9.7 0.00 0.00 0.00 44 1009.5
20200929131913 31 270 9.7 9.7 0.00 0.00 0.00 45 1009.5
20200929131708 31 270 4.8 8.0 0.00 0.00 0.00 45 1009.6
20200929131512 31 22 3.2 6.4 0.00 0.00 0.00 45 1009.6
20200929131302 31 123 3.2 9.7 0.00 0.00 0.00 44 1009.5
20200929131101 31 157 3.2 9.7 0.00 0.00 0.00 45 1009.6
20200929130901 31 157 9.7 9.7 0.00 0.00 0.00 45 1009.6
20200929130656 31 270 1.6 8.0 0.00 0.00 0.00 46 1009.6
20200929130453 31 157 1.6 8.0 0.00 0.00 0.00 46 1009.6
20200929130252 31 0 6.4 6.4 0.00 0.00 0.00 46 1009.6
20200929130049 31 157 1.6 9.7 0.00 0.00 0.00 45 1009.7
20200929125848 31 270 6.4 9.7 0.00 0.00 0.00 46 1009.7
20200929125645 31 157 4.8 6.4 0.00 0.00 0.00 46 1009.7
20200929125445 31 157 4.8 11.3 0.00 0.00 0.00 46 1009.7
20200929125242 31 157 6.4 11.3 0.00 0.00 0.00 46 1009.7
20200929125042 31 157 3.2 12.9 0.00 0.00 0.00 46 1009.7
20200929124837 31 157 4.8 12.9 0.00 0.00 0.00 46 1009.8
20200929124636 31 157 12.9 12.9 0.00 0.00 0.00 47 1009.8
20200929124231 31 168 3.2 6.4 0.00 0.00 0.00 47 1009.8
20200929124029 31 157 6.4 6.4 0.00 0.00 0.00 47 1009.9
20200929123827 30 0 6.4 6.4 0.00 0.00 0.00 48 1009.9
20200929123425 30 157 3.2 8.0 0.00 0.00 0.00 48 1010.0
20200929123226 30 157 4.8 8.0 0.00 0.00 0.00 48 1010.0
20200929123022 30 270 4.8 8.0 0.00 0.00 0.00 50 1010.1
20200929122819 30 157 4.8 8.0 0.00 0.00 0.00 49 1010.0
20200929122614 30 0 4.8 6.4 0.00 0.00 0.00 49 1010.1
20200929122419 30 157 6.4 6.4 0.00 0.00 0.00 50 1010.2
20200929122215 30 123 4.8 6.4 0.00 0.00 0.00 50 1010.2
20200929122008 30 157 4.8 6.4 0.00 0.00 0.00 50 1010.3
20200929121806 30 270 3.2 9.7 0.00 0.00 0.00 51 1010.3
20200929121402 30 157 0.0 6.4 0.00 0.00 0.00 52 1010.4
20200929121159 29 0 6.4 8.0 0.00 0.00 0.00 52 1010.3
20200929120958 29 157 4.8 8.0 0.00 0.00 0.00 52 1010.4
20200929120759 29 270 3.2 9.7 0.00 0.00 0.00 54 1010.4
20200929120556 29 157 6.4 9.7 0.00 0.00 0.00 53 1010.4
20200929120356 29 157 9.7 9.7 0.00 0.00 0.00 53 1010.4
20200929120152 29 157 3.2 8.0 0.00 0.00 0.00 53 1010.4
20200929115947 28 157 3.2 6.4 0.00 0.00 0.00 54 1010.4
20200929115748 28 90 4.8 4.8 0.00 0.00 0.00 54 1010.5
20200929115543 28 0 1.6 9.7 0.00 0.00 0.00 54 1010.6
20200929115341 28 0 4.8 9.7 0.00 0.00 0.00 55 1010.6
20200929115142 28 225 3.2 4.8 0.00 0.00 0.00 56 1010.6
20200929114937 28 157 3.2 9.7 0.00 0.00 0.00 56 1010.4
20200929114735 28 270 4.8 9.7 0.00 0.00 0.00 56 1010.5
20200929114535 28 157 8.0 9.7 0.00 0.00 0.00 57 1010.5
20200929114333 28 157 3.2 6.4 0.00 0.00 0.00 58 1010.4
20200929113726 28 270 3.2 8.0 0.00 0.00 0.00 58 1010.6
20200929113522 28 157 3.2 8.0 0.00 0.00 0.00 59 1010.5
20200929113322 27 157 1.6 4.8 0.00 0.00 0.00 60 1010.6
20200929113119 27 157 3.2 4.8 0.00 0.00 0.00 61 1010.6
20200929112918 27 112 3.2 6.4 0.00 0.00 0.00 60 1010.6
20200929112717 27 157 0.0 6.4 0.00 0.00 0.00 60 1010.6
20200929112515 27 157 4.8 4.8 0.00 0.00 0.00 61 1010.6
20200929112311 27 157 1.6 6.4 0.00 0.00 0.00 62 1010.8
20200929112109 27 157 3.2 6.4 0.00 0.00 0.00 63 1010.7
20200929111908 26 90 4.8 6.4 0.00 0.00 0.00 63 1010.6
20200929111711 26 90 1.6 4.8 0.00 0.00 0.00 64 1010.8
20200929111507 26 0 3.2 4.8 0.00 0.00 0.00 64 1010.8
20200929111304 26 90 3.2 4.8 0.00 0.00 0.00 65 1010.9
20200929111057 26 123 3.2 8.0 0.00 0.00 0.00 66 1010.8
20200929110858 26 90 6.4 8.0 0.00 0.00 0.00 66 1010.8
20200929110654 26 90 1.6 6.4 0.00 0.00 0.00 66 1010.8
20200929110452 26 90 4.8 6.4 0.00 0.00 0.00 66 1010.8
20200929110249 25 90 3.2 4.8 0.00 0.00 0.00 67 1010.8
20200929110051 25 90 3.2 8.0 0.00 0.00 0.00 68 1010.8
20200929105845 25 270 3.2 8.0 0.00 0.00 0.00 68 1010.8
20200929105647 25 90 3.2 8.0 0.00 0.00 0.00 69 1010.9
20200929105447 25 90 3.2 6.4 0.00 0.00 0.00 68 1010.9
20200929104633 25 270 3.2 8.0 0.00 0.00 0.00 70 1010.9
20200929104433 25 90 4.8 6.4 0.00 0.00 0.00 71 1011.0
20200929104228 24 270 1.6 6.4 0.00 0.00 0.00 71 1011.0
20200929104028 24 90 3.2 4.8 0.00 0.00 0.00 72 1011.1
20200929103828 24 45 3.2 6.4 0.00 0.00 0.00 73 1011.1
20200929103623 24 90 1.6 6.4 0.00 0.00 0.00 73 1011.1
20200929103420 24 90 3.2 6.4 0.00 0.00 0.00 73 1011.1
20200929103219 23 315 4.8 4.8 0.00 0.00 0.00 74 1011.0
20200929103025 23 90 1.6 4.8 0.00 0.00 0.00 74 1011.1
20200929102823 23 90 1.6 6.4 0.00 0.00 0.00 74 1011.2
20200929102612 23 90 3.2 6.4 0.00 0.00 0.00 75 1011.1
20200929102410 23 157 1.6 3.2 0.00 0.00 0.00 75 1011.1
20200929102211 23 157 0.0 4.8 0.00 0.00 0.00 76 1011.2
20200929102009 23 22 1.6 6.4 0.00 0.00 0.00 76 1011.2
20200929101804 22 90 1.6 6.4 0.00 0.00 0.00 76 1011.1
20200929101604 22 270 4.8 6.4 0.00 0.00 0.00 78 1011.2
20200929101400 22 33 4.8 6.4 0.00 0.00 0.00 78 1011.2
20200929101158 22 90 3.2 6.4 0.00 0.00 0.00 78 1011.3
20200929100957 22 45 6.4 6.4 0.00 0.00 0.00 78 1011.2
20200929100802 22 90 1.6 6.4 0.00 0.00 0.00 79 1011.2
20200929100552 22 90 3.2 6.4 0.00 0.00 0.00 80 1011.3
20200929100350 22 45 3.2 6.4 0.00 0.00 0.00 80 1011.2
20200929100149 21 270 4.8 4.8 0.00 0.00 0.00 80 1011.3
20200929095744 21 90 3.2 4.8 0.00 0.00 0.00 81 1011.2
20200929095548 21 90 1.6 4.8 0.00 0.00 0.00 81 1011.2
20200929095138 21 90 1.6 6.4 0.00 0.00 0.00 82 1011.2
20200929094939 21 90 3.2 4.8 0.00 0.00 0.00 82 1011.2
20200929094736 21 90 4.8 4.8 0.00 0.00 0.00 82 1011.2
20200929094530 21 90 4.8 6.4 0.00 0.00 0.00 83 1011.2
20200929094329 21 90 4.8 6.4 0.00 0.00 0.00 83 1011.3
20200929094126 20 45 4.8 6.4 0.00 0.00 0.00 84 1011.3
20200929093925 20 45 3.2 8.0 0.00 0.00 0.00 83 1011.3
20200929093723 20 135 4.8 8.0 0.00 0.00 0.00 84 1011.3
20200929093521 20 90 1.6 4.8 0.00 0.00 0.00 84 1011.3
20200929093320 20 270 3.2 6.4 0.00 0.00 0.00 85 1011.3
20200929093120 20 315 1.6 6.4 0.00 0.00 0.00 85 1011.4
20200929092914 20 45 6.4 6.4 0.00 0.00 0.00 85 1011.4
20200929092712 20 90 0.0 6.4 0.00 0.00 0.00 85 1011.3
20200929092510 20 90 4.8 6.4 0.00 0.00 0.00 85 1011.4
20200929092317 20 90 6.4 6.4 0.00 0.00 0.00 85 1011.3
20200929092111 20 90 4.8 4.8 0.00 0.00 0.00 85 1011.3
20200929091905 20 90 3.2 9.7 0.00 0.00 0.00 86 1011.3
20200929091702 20 180 1.6 9.7 0.00 0.00 0.00 86 1011.2
20200929091512 19 45 4.8 6.4 0.00 0.00 0.00 87 1011.2
20200929091301 19 90 3.2 6.4 0.00 0.00 0.00 87 1011.1
20200929091056 19 90 3.2 6.4 0.00 0.00 0.00 88 1011.3
20200929090854 19 90 6.4 6.4 0.00 0.00 0.00 88 1011.3
20200929090655 19 90 1.6 6.4 0.00 0.00 0.00 88 1011.3
20200929090449 19 90 3.2 6.4 0.00 0.00 0.00 88 1011.3
20200929090249 19 90 1.6 4.8 0.00 0.00 0.00 88 1011.3
20200929090047 18 45 4.8 4.8 0.00 0.00 0.00 89 1011.2
20200929085843 18 90 1.6 4.8 0.00 0.00 0.00 89 1011.2
20200929085443 18 90 3.2 4.8 0.00 0.00 0.00 89 1011.2
20200929085239 18 270 1.6 4.8 0.00 0.00 0.00 89 1011.3
20200929085035 18 45 4.8 8.0 0.00 0.00 0.00 90 1011.2
20200929084833 18 90 6.4 8.0 0.00 0.00 0.00 90 1011.2
20200929084634 18 135 6.4 6.4 0.00 0.00 0.00 91 1011.2
20200929084429 18 45 3.2 6.4 0.00 0.00 0.00 90 1011.2
20200929084230 18 90 4.8 6.4 0.00 0.00 0.00 91 1011.1
20200929083828 18 90 3.2 4.8 0.00 0.00 0.00 92 1011.2
20200929083620 18 90 3.2 4.8 0.00 0.00 0.00 92 1011.3
20200929083419 18 0 3.2 3.2 0.00 0.00 0.00 93 1011.3
20200929083216 17 270 3.2 3.2 0.00 0.00 0.00 93 1011.3
20200929083022 17 270 0.0 3.2 0.00 0.00 0.00 93 1011.2
20200929082814 17 157 0.0 1.6 0.00 0.00 0.00 93 1011.3
20200929082610 17 270 1.6 3.2 0.00 0.00 0.00 95 1011.3
20200929082408 17 270 0.0 3.2 0.00 0.00 0.00 95 1011.2
20200929082206 17 90 1.6 3.2 0.00 0.00 0.00 95 1011.2
20200929082005 17 90 0.0 4.8 0.00 0.00 0.00 95 1011.2
20200929081802 16 45 0.0 4.8 0.00 0.00 0.00 96 1011.3
20200929081601 16 180 1.6 3.2 0.00 0.00 0.00 97 1011.2
20200929081358 16 270 3.2 3.2 0.00 0.00 0.00 98 1011.2
20200929081155 16 270 0.0 3.2 0.00 0.00 0.00 98 1011.3
20200929080958 16 90 1.6 3.2 0.00 0.00 0.00 98 1011.3
20200929080751 15 90 0.0 3.2 0.00 0.00 0.00 99 1011.2
20200929080552 15 270 1.6 3.2 0.00 0.00 0.00 100 1011.2
20200929080349 15 270 1.6 1.6 0.00 0.00 0.00 100 1011.1
20200929080147 15 270 0.0 1.6 0.00 0.00 0.00 100 1011.2
20200929075951 14 157 0.0 3.2 0.00 0.00 0.00 100 1011.1
20200929075741 14 90 0.0 3.2 0.00 0.00 0.00 100 1011.1
20200929075334 13 270 1.6 3.2 0.00 0.00 0.00 100 1011.1
20200929075132 13 270 0.0 1.6 0.00 0.00 0.00 100 1011.1
20200929074931 12 90 0.0 1.6 0.00 0.00 0.00 100 1011.1
20200929074727 12 270 0.0 3.2 0.00 0.00 0.00 100 1011.1
20200929074529 12 270 1.6 3.2 0.00 0.00 0.00 100 1011.1
20200929074323 12 270 1.6 3.2 0.00 0.00 0.00 100 1011.1
20200929074124 12 180 0.0 3.2 0.00 0.00 0.00 100 1011.1
20200929073920 12 22 0.0 1.6 0.00 0.00 0.00 100 1011.1
20200929073717 11 22 0.0 1.6 0.00 0.00 0.00 100 1011.1
20200929073515 11 135 1.6 1.6 0.00 0.00 0.00 100 1011.0
20200929073314 11 270 0.0 0.0 0.00 0.00 0.00 100 1011.0
20200929073111 11 90 0.0 0.0 0.00 0.00 0.00 100 1011.0
20200929072910 11 90 0.0 0.0 0.00 0.00 0.00 100 1010.9
20200929072707 11 90 0.0 0.0 0.00 0.00 0.00 100 1010.9
20200929072510 11 90 0.0 0.0 0.00 0.00 0.00 100 1011.0
20200929072305 11 270 0.0 0.0 0.00 0.00 0.00 100 1010.9
20200929072101 11 90 0.0 0.0 0.00 0.00 0.00 100 1010.9
20200929071858 11 45 0.0 1.6 0.00 0.00 0.00 100 1010.9
20200929071657 11 270 0.0 1.6 0.00 0.00 0.00 100 1010.8
20200929071458 11 270 0.0 0.0 0.00 0.00 0.00 100 1010.7
20200929071259 11 90 0.0 0.0 0.00 0.00 0.00 100 1010.8
20200929064828 11 157 0.0 1.6 0.00 0.00 0.00 99 1010.6
20200929064627 11 90 0.0 1.6 0.00 0.00 0.00 99 1010.7
20200929064424 11 22 0.0 4.8 0.00 0.00 0.00 99 1010.6
20200929064221 11 270 0.0 4.8 0.00 0.00 0.00 98 1010.6
20200929064021 11 22 4.8 4.8 0.00 0.00 0.00 98 1010.6
20200929063619 11 180 0.0 1.6 0.00 0.00 0.00 97 1010.7
20200929063413 11 22 0.0 1.6 0.00 0.00 0.00 97 1010.6
20200929063215 11 270 0.0 1.6 0.00 0.00 0.00 96 1010.6
20200929063024 11 270 1.6 1.6 0.00 0.00 0.00 97 1010.6
20200929062815 11 22 0.0 1.6 0.00 0.00 0.00 96 1010.6
20200929062616 11 270 0.0 0.0 0.00 0.00 0.00 97 1010.6
20200929062405 11 22 0.0 0.0 0.00 0.00 0.00 97 1010.6
20200929062200 11 270 0.0 1.6 0.00 0.00 0.00 96 1010.4
20200929061959 11 270 0.0 1.6 0.00 0.00 0.00 96 1010.5
20200929061759 12 22 0.0 1.6 0.00 0.00 0.00 96 1010.5
20200929061559 12 270 0.0 1.6 0.00 0.00 0.00 96 1010.5
20200929061352 12 22 0.0 1.6 0.00 0.00 0.00 96 1010.6
20200929061151 12 135 0.0 1.6 0.00 0.00 0.00 96 1010.5
20200929061006 12 22 0.0 1.6 0.00 0.00 0.00 96 1010.5
20200929060754 12 157 0.0 1.6 0.00 0.00 0.00 96 1010.5
20200929060544 12 90 0.0 1.6 0.00 0.00 0.00 96 1010.4
20200929060342 12 270 0.0 1.6 0.00 0.00 0.00 96 1010.4
20200929060143 12 180 0.0 1.6 0.00 0.00 0.00 96 1010.3
20200929055938 12 270 0.0 1.6 0.00 0.00 0.00 96 1010.3
20200929055736 12 157 0.0 4.8 0.00 0.00 0.00 96 1010.3
20200929055534 12 270 0.0 4.8 0.00 0.00 0.00 96 1010.4
20200929055333 12 135 0.0 0.0 0.00 0.00 0.00 95 1010.3
20200929055130 12 135 0.0 1.6 0.00 0.00 0.00 95 1010.4
20200929054927 12 135 0.0 1.6 0.00 0.00 0.00 95 1010.3
20200929054728 12 135 1.6 1.6 0.00 0.00 0.00 94 1010.3
20200929054526 13 135 0.0 1.6 0.00 0.00 0.00 95 1010.3
20200929054322 13 135 0.0 1.6 0.00 0.00 0.00 94 1010.3
20200929054119 13 22 0.0 1.6 0.00 0.00 0.00 94 1010.3
20200929053920 13 270 0.0 0.0 0.00 0.00 0.00 94 1010.4
20200929053715 13 270 0.0 0.0 0.00 0.00 0.00 93 1010.4
20200929053516 13 270 0.0 0.0 0.00 0.00 0.00 93 1010.3
20200929053311 13 270 0.0 1.6 0.00 0.00 0.00 93 1010.3
20200929053115 13 270 0.0 1.6 0.00 0.00 0.00 93 1010.3
20200929052908 13 270 0.0 0.0 0.00 0.00 0.00 93 1010.4
20200929052705 14 270 0.0 0.0 0.00 0.00 0.00 93 1010.4
20200929052509 14 270 0.0 0.0 0.00 0.00 0.00 93 1010.4
20200929052305 14 22 0.0 3.2 0.00 0.00 0.00 93 1010.4
20200929052105 14 270 0.0 3.2 0.00 0.00 0.00 93 1010.2
20200929051858 14 270 0.0 0.0 0.00 0.00 0.00 93 1010.2
20200929051454 14 270 0.0 1.6 0.00 0.00 0.00 94 1010.3
20200929051250 15 270 1.6 1.6 0.00 0.00 0.00 94 1010.2
20200929051049 15 270 1.6 1.6 0.00 0.00 0.00 94 1010.3
20200929050846 15 180 0.0 1.6 0.00 0.00 0.00 95 1010.2
20200929050647 15 22 1.6 1.6 0.00 0.00 0.00 94 1010.1
20200929050443 15 22 0.0 4.8 0.00 0.00 0.00 95 1010.2
20200929050252 15 270 1.6 4.8 0.00 0.00 0.00 95 1010.2
20200929050038 15 270 0.0 3.2 0.00 0.00 0.00 95 1010.2
20200929045839 15 270 1.6 1.6 0.00 0.00 0.00 96 1010.1
20200929045635 15 22 0.0 1.6 0.00 0.00 0.00 95 1010.2
20200929045433 15 270 0.0 4.8 0.00 0.00 0.00 96 1010.2
20200929045229 15 270 1.6 4.8 0.00 0.00 0.00 96 1010.2
20200929045029 15 270 1.6 1.6 0.00 0.00 0.00 96 1010.1
20200929044829 15 180 0.0 3.2 0.00 0.00 0.00 96 1010.1
20200929044624 15 270 0.0 3.2 0.00 0.00 0.00 96 1010.1
20200929044425 15 270 1.6 3.2 0.00 0.00 0.00 96 1010.2
20200929044220 15 45 1.6 3.2 0.00 0.00 0.00 97 1010.1
20200929044017 15 270 1.6 3.2 0.00 0.00 0.00 97 1010.1
20200929043822 14 45 1.6 3.2 0.00 0.00 0.00 97 1009.9
20200929043613 14 45 0.0 3.2 0.00 0.00 0.00 97 1010.0
20200929043413 14 270 1.6 3.2 0.00 0.00 0.00 97 1010.1
20200929043210 14 22 1.6 3.2 0.00 0.00 0.00 97 1009.9
20200929043020 14 270 1.6 3.2 0.00 0.00 0.00 98 1010.0
20200929042805 14 45 1.6 3.2 0.00 0.00 0.00 98 1010.1
20200929042603 14 22 1.6 3.2 0.00 0.00 0.00 99 1010.0
20200929042402 14 22 1.6 3.2 0.00 0.00 0.00 99 1010.0
20200929042200 14 270 3.2 3.2 0.00 0.00 0.00 98 1010.0
20200929041956 14 45 0.0 1.6 0.00 0.00 0.00 99 1010.0
20200929041757 14 45 1.6 1.6 0.00 0.00 0.00 99 1010.0
20200929041557 14 90 0.0 1.6 0.00 0.00 0.00 99 1010.1
20200929041351 14 90 0.0 1.6 0.00 0.00 0.00 100 1010.1
20200929041150 13 180 0.0 1.6 0.00 0.00 0.00 100 1010.0
20200929040951 13 135 1.6 3.2 0.00 0.00 0.00 100 1010.0
20200929040746 13 270 1.6 3.2 0.00 0.00 0.00 100 1010.0
20200929040549 13 180 0.0 3.2 0.00 0.00 0.00 100 1010.0
20200929040344 13 180 0.0 3.2 0.00 0.00 0.00 100 1010.1
20200929040153 13 45 3.2 3.2 0.00 0.00 0.00 100 1010.0
20200929035936 13 157 0.0 4.8 0.00 0.00 0.00 100 1010.0
20200929035734 13 45 0.0 4.8 0.00 0.00 0.00 100 1009.9
20200929035534 13 45 1.6 4.8 0.00 0.00 0.00 100 1009.9
20200929035330 13 45 0.0 3.2 0.00 0.00 0.00 100 1010.0
20200929035127 13 45 1.6 1.6 0.00 0.00 0.00 100 1009.9
20200929034928 13 45 1.6 1.6 0.00 0.00 0.00 100 1010.0
20200929034724 12 45 1.6 1.6 0.00 0.00 0.00 100 1010.0
20200929034522 12 45 0.0 1.6 0.00 0.00 0.00 100 1010.0
20200929034321 12 45 1.6 1.6 0.00 0.00 0.00 100 1010.1
20200929034120 12 33 1.6 1.6 0.00 0.00 0.00 100 1010.1
20200929033921 12 270 1.6 1.6 0.00 0.00 0.00 100 1010.0
20200929033714 12 135 0.0 1.6 0.00 0.00 0.00 100 1010.1
20200929033513 12 180 0.0 1.6 0.00 0.00 0.00 100 1010.1
20200929033316 12 270 0.0 1.6 0.00 0.00 0.00 100 1010.1
20200929033107 12 90 0.0 1.6 0.00 0.00 0.00 100 1010.1
20200929032908 12 270 1.6 1.6 0.00 0.00 0.00 100 1010.1
20200929032707 12 90 0.0 1.6 0.00 0.00 0.00 100 1010.1
20200929032512 12 22 0.0 1.6 0.00 0.00 0.00 100 1010.1
20200929032300 12 270 0.0 1.6 0.00 0.00 0.00 100 1009.9
20200929032058 12 45 0.0 1.6 0.00 0.00 0.00 100 1009.9
20200929031858 12 45 1.6 1.6 0.00 0.00 0.00 100 1009.9
20200929031700 12 45 0.0 0.0 0.00 0.00 0.00 100 1010.0
20200929031454 12 45 0.0 0.0 0.00 0.00 0.00 100 1010.0